Location: Taunton
(51.0167°N, 3.1000°W)
Time: 21:58:02
(UTC+01:00)

Tiangong 2 - Visible Passes

Search period start: 27 June 2017 00:00
Search period end: 07 July 2017 00:00
Orbit: 391 x 396 km, 42.8° (Epoch: 26 June)

Date Brightness Start Highest point End Pass type
(mag) Time Alt. Az. Time Alt. Az. Time Alt. Az.
03 Jul 3.4 04:01:47 10° S 04:03:17 13° SSE 04:04:49 10° SE visible
05 Jul 3.0 03:45:09 13° SSW 03:46:32 16° SSE 03:48:38 10° SE visible
06 Jul 3.4 02:50:51 13° SSE 02:50:51 13° SSE 02:51:44 10° SE visible
